Station BUFN6 - 9063020 - Buffalo, NY Image indicating link to RSS feed of recent meteorological observations for station BUFN6


Conditions at BUFN6 as of
(10:30 pm EDT on 05/26/2024)
0230 GMT on 05/27/2024:
     

Click on the graph icon in the table below to see a time series plot of the last five days of that observation.

5-day plot - Water Temperature Water Temperature (WTMP): 20.6 °C
5-day plot - Wind Speed at 10 Meters Wind Speed at 10 meters (WSPD10M): 4 m/s
5-day plot - Wind Speed at 20 Meters Wind Speed at 20 meters (WSPD20M): 4 m/s
NOS Water Level Observation Network Water Level
Previous observations
TIME
(EDT)
5-day plot - Wind Direction
WDIR
 
5-day plot - Wind Speed
WSPD
m/s
5-day plot - Wind Gust
GST
m/s
5-day plot - Wave Height
WVHT
m
5-day plot - Dominant Wave Period
DPD
sec
5-day plot - Average Wave Period
APD
sec
5-day plot - Mean Wave Direction
MWD
 
5-day plot - Atmospheric Pressure
PRES
mb
5-day plot - Pressure Tendency
PTDY
mb
5-day plot - Air Temperature
ATMP
°C
5-day plot - Water Temperature
WTMP
°C
5-day plot - Dew Point
DEWP
°C
5-day plot - Salinity
SAL
psu
5-day plot - Visibility
VIS
km
5-day plot - Tide (above MLLW)
TIDE
m
2024-05-26 10:24 pm---------- 20.5----
2024-05-26 10:18 pm E 3.6 6.7----1005.4-------
2024-05-26 10:12 pm E 5.1 7.7----1005.5-------
2024-05-26 10:06 pmENE 4.6 7.2----1005.8-------
2024-05-26 10:00 pmENE 5.7 7.7----1006.0 -1.5- 20.8----
2024-05-26 09:54 pmENE 5.1 8.2----1006.0-- 20.9----
2024-05-26 09:48 pm E 5.1 8.2----1006.1- 20.9 20.9 14.7---
2024-05-26 09:42 pmENE 4.1 9.3----1006.1- 21.0 20.9 14.8---
2024-05-26 09:36 pm E 5.7 8.8----1006.1- 21.0 20.9 14.7---
2024-05-26 09:30 pm E 4.6 7.2----1006.2- 21.1 20.9 14.8---
2024-05-26 09:24 pmENE 5.7 8.8----1006.3- 21.2 21.0 14.9---
2024-05-26 09:18 pmENE 4.6 7.7----1006.4-- 21.1----
2024-05-26 09:12 pmENE 5.1 8.8----1006.4-- 21.0----
2024-05-26 09:06 pm E 5.1 7.2----1006.4-- 20.7----
2024-05-26 09:00 pmENE 4.6 7.2----1006.5 -2.0- 20.8----
2024-05-26 08:54 pmENE 6.2 7.7----1006.5-- 20.9----
2024-05-26 08:48 pmENE 3.6 7.2----1006.7-- 20.9----
2024-05-26 08:42 pmENE 4.1 7.2----1006.8-- 21.1----
2024-05-26 08:36 pm E 5.1 8.2----1006.8-- 21.1----
2024-05-26 08:30 pmENE 4.1 6.7----1006.8- 21.9 21.1 15.6---
2024-05-26 08:24 pmENE 3.6 7.2----1006.8- 22.0 21.1 15.8---
2024-05-26 08:18 pmENE 4.1 7.2----1006.8-- 21.0----
2024-05-26 08:12 pm NE 3.1 6.2----1006.8-- 20.9----
2024-05-26 08:06 pmENE 3.1 7.2----1006.9-- 20.9----
2024-05-26 08:00 pm NE 4.1 6.7----1006.9 -1.9- 20.9----
2024-05-26 07:54 pm NE 3.1 6.7----1006.9-- 21.0----
2024-05-26 07:48 pm-------1006.9-- 21.0----
2024-05-26 07:42 pm-------1007.0-- 20.7----
2024-05-26 07:36 pm-------1007.2-- 20.6----
2024-05-26 07:30 pm NE 4.6 6.7----1007.2-- 20.8----
2024-05-26 07:24 pmNNE 3.6 8.2----1007.3-- 20.7----
2024-05-26 07:00 pm NE 5.1 9.3----1007.5 -2.4 22.2 21.1 15.8---
2024-05-26 06:54 pmNNE 5.1 8.2----1007.7- 22.3 21.0 15.6---
2024-05-26 06:48 pmNNE 6.2 9.8----1007.9- 22.3 20.8 15.6---
2024-05-26 06:42 pmNNE 7.2 9.8----1007.9- 22.3 21.0 15.5---
2024-05-26 06:36 pmNNE 6.7 9.8----1008.0- 22.4 21.1 15.7---
2024-05-26 06:30 pmNNE 6.2 8.8----1008.1-- 21.2----
2024-05-26 06:24 pmNNE 7.2 9.3----1008.2-- 21.0----
2024-05-26 06:18 pmNNE 6.7 8.2----1008.4- 22.8 21.1 16.0---
2024-05-26 06:12 pmNNE 6.2 8.8----1008.5- 23.1 21.0 15.8---
2024-05-26 06:06 pmNNE 6.2 8.8----1008.7- 23.5 20.8 15.7---
2024-05-26 06:00 pmNNE 4.6 8.2----1008.5 -2.4 23.9 20.9 15.6---
2024-05-26 05:54 pmNNE 6.7 8.2----1008.5- 23.8 20.9 15.6---
2024-05-26 05:48 pmNNE 5.1 7.2----1008.6-- 21.0----
2024-05-26 05:42 pmNNE 6.2 9.3----1008.7-- 21.2----
2024-05-26 05:36 pm N 4.6 6.7----1008.7-- 20.9----
2024-05-26 05:30 pmNNE 5.1 8.8----1008.7- 24.4 21.0 14.4---
2024-05-26 05:24 pm NE 3.6 5.7----1008.7- 25.0 20.7 13.5---
2024-05-26 05:18 pm NE 3.6 6.7----1008.8- 25.4 20.8 12.8---
2024-05-26 05:12 pmNNE 3.1 4.6----1008.8- 25.2 20.7 12.3---
2024-05-26 05:06 pmENE 3.1 5.1----1008.8- 25.5 20.8 12.9---
2024-05-26 05:00 pm-------1008.8- 24.9 21.0 12.3---
2024-05-26 04:54 pm-------1009.0- 25.6 21.0 12.4---
2024-05-26 04:48 pmENE 3.1 4.6----1009.1- 25.7 21.1 12.1---
2024-05-26 04:42 pm E 2.6 4.1----1009.2- 25.8 21.0 11.4---
2024-05-26 04:36 pm NE 2.6 3.6----1009.4- 25.6 20.7 12.4---
2024-05-26 04:30 pm-------1009.4- 25.0 20.9 12.2---
2024-05-26 04:24 pm-------1009.6- 25.4 20.7 11.7---
2024-05-26 04:18 pmENE 2.6 5.7----1009.6- 25.5 20.7 11.7---
2024-05-26 04:12 pm NW 2.1 2.6----1009.8- 24.7 20.6 11.7---
2024-05-26 04:06 pm SE 0.5 2.6----1009.9- 25.8 20.7 11.5---
2024-05-26 04:00 pm SE 1.0 2.6----1009.9 -2.5- 20.8----
2024-05-26 03:54 pmENE 1.0 4.1----1010.1-- 20.7----
2024-05-26 03:48 pm N 2.6 4.1----1010.2-- 20.9----
2024-05-26 03:42 pmNNE 1.5 3.1----1010.3-- 20.6----
2024-05-26 03:36 pm NW 1.5 2.1----1010.4-- 20.5----
2024-05-26 03:30 pm N 1.5 3.6----1010.5- 24.7 20.6 11.0---
2024-05-26 03:24 pmNNE 3.1 6.2----1010.5- 24.4 20.6 11.8---
2024-05-26 03:18 pm NW 2.1 3.1----1010.5-- 20.6----
2024-05-26 03:12 pmNNW 1.0 2.1----1010.7-- 20.5----
2024-05-26 03:06 pm N 2.1 2.6----1010.8-- 20.4----
2024-05-26 03:00 pm N 1.5 2.6----1010.9 -1.8 23.6 20.4 12.1---
2024-05-26 02:54 pm N 0.5 3.6----1011.0- 24.0 20.3 10.8---
2024-05-26 02:48 pm-------1011.0- 23.1 20.5 11.4---
2024-05-26 02:42 pm-------1011.2- 23.0 20.6 10.8---
2024-05-26 02:36 pm-------1011.3- 23.1 20.7 10.8---
2024-05-26 02:30 pm W 1.5 1.5----1011.5- 23.1 20.7 11.8---
2024-05-26 02:24 pm W 2.1 3.1----1011.5- 22.8 20.6 11.4---
2024-05-26 02:18 pmWNW 2.6 4.1----1011.7- 22.2 20.6 11.5---
2024-05-26 02:12 pm NW 2.6 3.1----1011.7- 22.1 20.7 12.1---
2024-05-26 02:06 pm NW 1.5 3.1----1011.8- 22.6 20.7 11.3---
2024-05-26 02:00 pmWNW 2.6 2.6------- 20.6----
2024-05-26 01:54 pmWNW 1.5 3.1------- 20.5----
2024-05-26 01:48 pmWNW 1.5 4.1----1012.1- 22.8 20.4 9.8---
2024-05-26 01:42 pmWNW 2.6 3.1----1012.2- 21.8 20.3 10.6---
2024-05-26 01:36 pm W 2.6 2.6----1012.4- 22.2 20.4 10.2---
2024-05-26 01:30 pm W 2.6 3.1----1012.4-- 20.5----
2024-05-26 01:24 pmWNW 1.0 3.6----1012.5-- 20.6----
2024-05-26 01:18 pmWNW 2.1 3.6----1012.4- 21.1 20.7 12.4---
2024-05-26 01:12 pmWNW 2.6 3.1----1012.4- 20.9 20.5 12.3---
2024-05-26 01:06 pmNNW 2.1 4.1----1012.4- 20.9 20.4 12.4---
2024-05-26 01:00 pmWNW 3.6 3.6----1012.4 -1.1 20.4 20.3 13.0---
2024-05-26 12:54 pm W 1.0 2.1----1012.4- 21.3 20.2 11.8---
2024-05-26 12:48 pm NW 1.0 3.6----1012.5- 20.8 20.2 12.4---
2024-05-26 12:42 pmWSW 2.6 3.6----1012.6- 20.3 20.4 13.4---
2024-05-26 12:36 pm W 3.6 3.6----1012.5- 20.2 20.6 12.8---
2024-05-26 12:30 pm W 3.1 3.1----1012.7- 19.7 20.5 15.0---
2024-05-26 12:24 pm W 2.6 3.1----1012.8- 19.9 20.3 13.7---
2024-05-26 12:18 pmWSW 2.6 3.1----1012.7- 20.0 20.3 13.8---
2024-05-26 12:12 pm W 2.6 3.1----1012.7- 19.6 20.3 14.3---
2024-05-26 12:06 pm W 2.6 3.1----1012.6- 19.4 20.5 13.9---
2024-05-26 12:00 pm W 2.1 2.6----1012.7 -1.2 19.2 20.5 14.3---
2024-05-26 11:54 am W 2.6 2.6----1012.8- 18.7 20.3 15.5---
2024-05-26 11:48 am W 2.6 4.1----1012.8- 18.5 20.3 15.0---
2024-05-26 11:42 am W 3.6 4.1----1012.9- 18.0 20.2 15.6---
2024-05-26 11:36 am W 3.6 3.6----1013.0- 17.8 20.2 16.0---
2024-05-26 11:30 am W 3.6 3.6----1013.1- 17.7 20.2 16.1---
2024-05-26 11:24 am W 3.1 4.1----1013.2- 18.0 20.2 15.9---
2024-05-26 11:18 am W 3.6 3.6----1013.1- 18.3 20.0 16.1---
2024-05-26 11:12 amSSW 2.1 2.6----1013.1- 19.2 20.0 15.7---
2024-05-26 11:06 amSSW 2.1 2.6----1013.2- 19.2 20.0 14.7---
2024-05-26 11:00 am SE 2.1 2.6----1013.3 +0.0 19.7 20.0 13.7---
2024-05-26 10:54 am SE 1.0 2.6----1013.4- 19.9 20.0 14.4---
2024-05-26 10:48 am E 2.6 3.6----1013.4- 19.7 20.0 14.2---
2024-05-26 10:42 amENE 0.5 2.6----1013.6- 19.5 20.0 14.6---
2024-05-26 10:36 am SE 1.5 2.1----1013.4- 19.4 20.0 14.7---
2024-05-26 10:30 am- 0.0 2.6----1013.4- 19.1 20.1 14.8---
2024-05-26 10:24 amENE 1.5 2.6----1013.4- 19.1 20.1 15.3---
2024-05-26 10:18 am E 2.1 3.1----1013.3- 18.9 20.0 15.4---
2024-05-26 10:12 amENE 2.1 2.6----1013.4- 18.6 20.0 15.7---
2024-05-26 10:06 am E 1.5 2.6----1013.5- 18.0 20.0 15.5---
2024-05-26 10:00 amENE 1.5 2.6----1013.5 +0.6 18.1 20.0 15.7---
2024-05-26 09:54 am E 2.1 3.1----1013.5- 17.7 20.0 15.5---
2024-05-26 09:48 amENE 2.1 2.6----1013.6- 17.6 19.9 16.0---
2024-05-26 09:42 am E 2.1 3.1----1013.8- 17.3 19.9 15.7---
2024-05-26 09:36 am E 1.5 2.1----1013.9- 17.1 20.0 15.7---
2024-05-26 09:30 am E 1.5 2.1----1013.9-- 20.0----
2024-05-26 09:24 amENE 1.0 1.5----1013.8-- 20.0----
2024-05-26 09:18 am E 1.0 1.5----1013.8-- 20.0----
2024-05-26 09:12 amENE 1.0 2.1----1013.8-- 20.0----
2024-05-26 09:06 amENE 1.0 1.5----1013.9-- 20.0----
2024-05-26 09:00 am E 1.0 1.5----1013.9 +1.0- 20.0----
2024-05-26 08:54 am- 0.0 1.0----1013.8-- 19.9----
2024-05-26 08:48 amSSE 1.0 1.5----1013.8- 15.9 19.9 15.8---
2024-05-26 08:42 amSSE 1.0 1.5----1013.6- 15.9 20.0 15.8---
2024-05-26 08:36 am- 0.0 1.0----1013.5- 15.8 19.9 15.8---
2024-05-26 08:30 am SE 0.5 1.0----1013.5- 15.8 20.0 15.8---
2024-05-26 08:24 am SE 0.5 1.0----1013.4- 15.7 20.0 15.7---
2024-05-26 08:18 amESE 1.0 2.1----1013.3- 15.7 20.0 15.7---
2024-05-26 08:12 am E 1.5 2.1----1013.2- 15.8 20.0 15.8---
2024-05-26 08:06 am SE 1.5 2.1----1013.4- 15.7 20.0 15.7---
2024-05-26 08:00 am-------1013.4 +1.1 15.8- 15.8---
2024-05-26 07:54 am-------1013.3- 15.9- 15.8---
2024-05-26 07:48 amSSE 1.5 2.1----1013.3- 15.8 20.0 15.8---
2024-05-26 07:42 am S 1.5 2.1----1013.3- 15.8 20.0 15.7---
2024-05-26 07:36 am S 2.1 2.1----1013.3- 15.8 19.9 15.7---
2024-05-26 07:30 am S 1.5 2.1----1013.3- 15.9 19.9 15.7---
2024-05-26 07:24 am- 0.0 1.5----1013.3- 16.0 19.9 16.0---
2024-05-26 07:18 amSSE 1.0 2.1----1013.0-- 20.0----
2024-05-26 07:12 am S 1.5 2.1----1012.9-- 20.0----
2024-05-26 07:06 am- 0.0 1.0----1012.7-- 20.0----
2024-05-26 07:00 am S 0.5 1.0----1012.9 +0.5- 20.0----
2024-05-26 06:54 am S 0.5 1.0----1012.9-- 20.0----
2024-05-26 06:48 am S 0.5 1.5----1012.8-- 20.0----
2024-05-26 06:42 amSSW 1.5 2.1----1013.0-- 20.0----
2024-05-26 06:36 am S 1.5 2.1----1013.1-- 20.0----
2024-05-26 06:30 amSSW 1.5 2.6----1013.2- 15.7 20.1 15.7---
2024-05-26 06:24 am S 1.0 2.1----1013.1- 15.6 20.1 15.6---
2024-05-26 06:18 amSSW 1.5 2.1----1013.1-- 20.1----
2024-05-26 06:12 amSSW 1.0 1.5----1013.0-- 20.1----
2024-05-26 06:06 amWSW 1.0 1.5----1012.9-- 20.1----
2024-05-26 06:00 amWSW 1.5 2.1----1012.9 +1.0 15.4 20.1 15.4---
2024-05-26 05:54 am W 1.5 2.1----1012.9- 15.6 20.1 15.4---
2024-05-26 05:48 amWNW 0.5 1.5----1012.8- 15.4 20.1 15.2---
2024-05-26 05:42 am- 0.0 0.5----1012.7- 15.0 20.1 14.6---
2024-05-26 05:36 am- 0.0 0.5----1012.7- 14.9 20.0 14.6---
2024-05-26 05:30 am E 0.5 1.0----1012.4- 14.9 20.0 14.6---
2024-05-26 05:24 am E 1.0 1.0----1012.3- 15.0 20.0 14.8---
2024-05-26 05:18 am E 0.5 1.0----1012.4- 15.0 20.0 14.8---
2024-05-26 05:12 am E 1.0 1.5----1012.4- 15.0 20.0 14.9---
2024-05-26 05:06 am E 1.0 2.1----1012.3- 14.9 20.0 14.8---
2024-05-26 05:00 am E 1.5 1.5----1012.3 +0.8 14.8 20.0 14.6---
2024-05-26 04:54 am E 0.5 1.0----1012.5- 14.9 20.1 14.7---
2024-05-26 04:48 am- 0.0 1.0----1012.4-- 20.1----
2024-05-26 04:42 amESE 1.0 1.5----1012.4-- 20.0----
2024-05-26 04:36 amESE 0.5 1.0----1012.3-- 20.0----
2024-05-26 04:30 am- 0.0 1.5----1012.4- 15.0 20.1 15.0---
2024-05-26 04:24 amNNE 1.0 1.5----1012.3- 15.0 20.1 14.9---
2024-05-26 04:18 am N 1.5 2.1----1012.2- 14.9 20.1 14.9---
2024-05-26 04:12 amNNE 1.5 2.6----1012.2- 14.9 20.1 14.9---
2024-05-26 04:06 am N 2.6 2.6----1012.3- 14.9 20.1 14.9---
2024-05-26 04:00 am N 2.6 2.6----1012.4 +1.0 15.0 20.1 14.9---
2024-05-26 03:54 amNNW 1.5 2.1----1012.4- 15.1 20.1 15.1---
2024-05-26 03:48 amNNW 1.5 2.1----1012.4- 15.1 20.2 15.1---
2024-05-26 03:42 am NW 2.1 3.1----1012.3- 15.0 20.2 15.0---
2024-05-26 03:36 am NW 2.6 3.1----1012.2- 15.3 20.2 14.9---
2024-05-26 03:30 amNNW 0.5 1.0----1012.1- 16.1 20.2 15.3---
2024-05-26 03:24 amNNW 0.5 1.0----1012.0- 16.1 20.1 15.2---
2024-05-26 03:18 am N 0.5 1.5----1011.9- 16.1 20.1 15.2---
2024-05-26 03:12 am N 1.5 2.1----1011.9- 16.1 20.1 15.3---
2024-05-26 03:06 am N 1.0 2.1----1011.9- 16.1 20.1 15.3---
2024-05-26 03:00 amNNW 1.0 1.5----1011.9 +0.7 16.2 20.1 15.4---
2024-05-26 02:54 amNNW 1.5 2.1----1011.8- 16.2 20.1 15.4---
2024-05-26 02:48 amNNW 1.5 2.6----1011.7- 16.4 20.1 15.6---
2024-05-26 02:42 am- 0.0 2.1----1011.6- 16.4 20.1 15.5---
2024-05-26 02:36 am NW 2.1 2.6----1011.7- 16.5 20.1 15.6---
2024-05-26 02:30 am NW 2.1 2.6----1011.7- 16.7 20.1 15.8---
2024-05-26 02:24 am NW 1.5 2.1----1011.8- 16.7 20.1 16.2---
2024-05-26 02:18 amWSW 1.0 1.0----1011.7- 16.6 20.0 16.1---
2024-05-26 02:12 amWSW 1.0 1.5----1011.6- 16.7 20.0 16.2---
2024-05-26 02:06 am SW 1.5 1.5----1011.6- 16.7 20.0 16.1---
2024-05-26 02:00 am SW 1.0 2.1----1011.5 +0.5 16.8 20.0 16.2---
2024-05-26 01:54 amSSW 1.5 2.1----1011.5- 16.8 20.0 16.1---
2024-05-26 01:48 amSSW 1.0 1.0----1011.4- 16.8 20.0 16.1---
2024-05-26 01:42 amSSW 1.0 1.5----1011.5- 16.8 20.1 16.1---
2024-05-26 01:36 amSSW 1.0 1.5----1011.5- 16.8 20.1 16.1---
2024-05-26 01:30 amSSW 1.0 1.5----1011.5- 16.9 20.1 16.2---
2024-05-26 01:24 amSSW 0.5 1.5----1011.5- 16.8 20.0 16.1---
2024-05-26 01:18 am- 0.0 0.5----1011.4- 16.8 20.0 16.1---
2024-05-26 01:12 am SW 0.5 1.0----1011.4- 16.8 20.0 16.1---
2024-05-26 01:06 am SW 0.5 1.0----1011.4- 16.8 20.0 16.2---
2024-05-26 01:00 am SW 0.5 1.0----1011.4 +1.0 16.8 20.0 16.0---
2024-05-26 12:54 am SW 1.0 1.5----1011.4- 16.9 20.1 16.2---
2024-05-26 12:48 amWSW 1.0 1.5----1011.4- 16.9 20.1 16.2---
2024-05-26 12:42 amWSW 1.5 1.5----1011.4- 16.9 20.1 16.2---
2024-05-26 12:36 amWSW 1.0 1.5----1011.4- 16.9 20.1 16.2---
2024-05-26 12:30 amWSW 1.0 1.5----1011.4- 17.0 20.1 16.3---
2024-05-26 12:24 amWSW 1.5 1.5----1011.4- 17.0 20.1 16.3---
2024-05-26 12:18 amWSW 1.5 2.1----1011.3- 17.1 20.2 16.3---
2024-05-26 12:12 amWSW 1.5 2.1----1011.3- 17.1 20.2 16.2---
2024-05-26 12:06 amWSW 1.5 2.1----1011.3- 17.2 20.2 16.3---
2024-05-26 12:00 am SW 1.5 2.1----1011.2 +1.8 17.2 20.2 16.3---
2024-05-25 11:54 pm SW 1.5 2.1----1011.2- 17.2 20.2 16.2---
2024-05-25 11:48 pm SW 1.0 1.5----1011.2- 17.2 20.2 16.2---
2024-05-25 11:42 pm SW 1.5 2.1----1011.1- 17.2 20.2 16.3---
2024-05-25 11:36 pmWSW 1.5 1.5----1011.0- 17.2 20.2 16.3---
2024-05-25 11:30 pmWSW 1.5 1.5----1011.0- 17.2 20.1 16.2---
2024-05-25 11:24 pm SW 1.0 1.5----1011.0- 17.3 20.0 16.3---
2024-05-25 11:18 pmWSW 1.0 1.5----1011.0- 17.3 20.0 16.2---
2024-05-25 11:12 pmWSW 1.0 1.5----1011.0- 17.4 20.0 16.3---
2024-05-25 11:06 pm SW 1.5 1.5----1011.0- 17.5 20.0 16.4---
2024-05-25 11:00 pm SW 1.5 2.1----1011.0 +1.9 17.5 20.0 16.5---
2024-05-25 10:54 pm SW 1.0 2.1----1011.0- 17.5 20.0 16.4---